5 kleines Gehege Affenhaus Messungen

Zurück zum Überblick

Zeitpunkt Temperatur Luftfeuchte
26.01.2020 23:57:59 17,7 C 44,0%
26.01.2020 23:50:57 17,5 C 44,0%
26.01.2020 23:43:57 17,4 C 44,0%
26.01.2020 23:36:54 17,3 C 44,0%
26.01.2020 23:29:51 17,1 C 44,0%
26.01.2020 23:22:50 16,9 C 44,0%
26.01.2020 23:15:47 16,8 C 44,0%
26.01.2020 23:08:47 16,7 C 44,0%
26.01.2020 23:01:46 16,7 C 44,0%
26.01.2020 22:54:43 16,8 C 44,0%
26.01.2020 22:47:41 16,9 C 44,0%
26.01.2020 22:40:38 17,0 C 44,0%
26.01.2020 22:33:35 17,0 C 44,0%
26.01.2020 22:26:33 17,1 C 44,0%
26.01.2020 22:19:30 17,2 C 44,0%
26.01.2020 22:12:29 17,2 C 44,0%
26.01.2020 22:05:27 17,3 C 44,0%
26.01.2020 21:58:24 17,4 C 44,0%
26.01.2020 21:51:22 17,5 C 44,0%
26.01.2020 21:44:20 17,5 C 44,0%
26.01.2020 21:37:19 17,6 C 44,0%
26.01.2020 21:30:15 17,7 C 44,0%
26.01.2020 21:23:14 17,8 C 44,0%
26.01.2020 21:16:12 17,8 C 44,0%
26.01.2020 21:09:09 17,9 C 44,0%
26.01.2020 21:02:06 18,0 C 44,0%
26.01.2020 20:55:04 18,1 C 44,0%
26.01.2020 20:48:01 18,2 C 44,0%
26.01.2020 20:46:17 18,2 C 44,0%
26.01.2020 20:26:55 18,1 C 44,0%
26.01.2020 20:19:52 17,9 C 44,0%
26.01.2020 20:12:49 17,7 C 44,0%
26.01.2020 20:05:47 17,5 C 44,0%
26.01.2020 19:58:45 17,4 C 44,0%
26.01.2020 19:51:44 17,2 C 44,0%
26.01.2020 19:44:43 17,0 C 44,0%
26.01.2020 19:37:40 17,0 C 44,0%
26.01.2020 19:35:56 16,9 C 44,0%
26.01.2020 19:23:38 17,0 C 44,0%
26.01.2020 19:16:37 17,0 C 44,0%
26.01.2020 19:14:53 17,1 C 44,0%
26.01.2020 19:02:34 17,1 C 44,0%
26.01.2020 18:55:31 17,1 C 44,0%
26.01.2020 18:53:47 17,2 C 44,0%
26.01.2020 18:41:28 17,2 C 44,0%
26.01.2020 18:34:25 17,2 C 44,0%
26.01.2020 18:27:23 17,3 C 44,0%
26.01.2020 18:20:20 17,3 C 44,0%
26.01.2020 18:13:19 17,3 C 44,0%
26.01.2020 18:06:16 17,3 C 44,0%
26.01.2020 17:59:14 17,3 C 44,0%
26.01.2020 17:52:13 17,3 C 44,0%
26.01.2020 17:45:11 17,4 C 44,0%
26.01.2020 17:38:11 17,4 C 44,0%
26.01.2020 17:31:07 17,4 C 44,0%
26.01.2020 17:24:07 17,5 C 44,0%
26.01.2020 17:17:05 17,5 C 44,0%
26.01.2020 17:10:04 17,5 C 44,0%
26.01.2020 17:03:01 17,5 C 44,0%
26.01.2020 16:56:00 17,6 C 44,0%
26.01.2020 16:48:57 17,6 C 44,0%
26.01.2020 16:41:54 17,6 C 44,0%
26.01.2020 16:34:53 17,6 C 44,0%
26.01.2020 16:27:50 17,7 C 45,0%
26.01.2020 16:20:49 17,7 C 45,0%
26.01.2020 16:13:46 17,7 C 45,0%
26.01.2020 16:06:42 17,6 C 45,0%
26.01.2020 15:59:41 17,5 C 45,0%
26.01.2020 15:52:38 17,5 C 44,0%
26.01.2020 15:45:35 17,5 C 44,0%
26.01.2020 15:38:33 17,5 C 44,0%
26.01.2020 15:31:33 17,5 C 44,0%
26.01.2020 15:24:31 17,5 C 44,0%
26.01.2020 15:17:29 17,5 C 44,0%
26.01.2020 15:10:26 17,5 C 44,0%
26.01.2020 15:03:24 17,5 C 44,0%
26.01.2020 14:56:23 17,5 C 44,0%
26.01.2020 14:49:22 17,5 C 44,0%
26.01.2020 14:42:21 17,4 C 44,0%
26.01.2020 14:35:19 17,4 C 44,0%
26.01.2020 14:28:18 17,3 C 44,0%
26.01.2020 14:21:15 17,3 C 44,0%
26.01.2020 14:14:14 17,3 C 44,0%
26.01.2020 14:07:12 17,3 C 44,0%
26.01.2020 14:00:11 17,3 C 44,0%
26.01.2020 13:53:08 17,3 C 44,0%
26.01.2020 13:46:05 17,2 C 44,0%
26.01.2020 13:39:04 17,2 C 44,0%
26.01.2020 13:32:02 17,1 C 44,0%
26.01.2020 13:25:00 17,1 C 44,0%
26.01.2020 13:17:59 17,1 C 44,0%
26.01.2020 13:10:56 17,0 C 44,0%
26.01.2020 13:03:55 17,0 C 44,0%
26.01.2020 12:56:55 17,0 C 44,0%
26.01.2020 12:49:54 17,0 C 44,0%
26.01.2020 12:42:50 17,0 C 43,0%
26.01.2020 12:35:48 17,0 C 43,0%
26.01.2020 12:28:46 17,0 C 43,0%
26.01.2020 12:27:02 17,1 C 43,0%
26.01.2020 12:14:43 17,2 C 43,0%
26.01.2020 12:07:41 17,2 C 43,0%
26.01.2020 12:00:38 17,2 C 43,0%
26.01.2020 11:53:35 17,3 C 43,0%
26.01.2020 11:46:34 17,3 C 43,0%
26.01.2020 11:39:31 17,3 C 43,0%
26.01.2020 11:32:30 17,4 C 43,0%
26.01.2020 11:25:28 17,5 C 43,0%
26.01.2020 11:18:26 17,5 C 43,0%
26.01.2020 11:11:25 17,6 C 43,0%
26.01.2020 11:04:22 17,7 C 43,0%
26.01.2020 10:57:19 17,8 C 43,0%
26.01.2020 10:50:16 17,8 C 43,0%
26.01.2020 10:43:13 17,9 C 43,0%
26.01.2020 10:36:13 17,9 C 43,0%
26.01.2020 10:29:11 17,8 C 43,0%
26.01.2020 10:22:08 17,7 C 43,0%
26.01.2020 10:15:06 17,5 C 43,0%
26.01.2020 10:08:02 17,4 C 43,0%
26.01.2020 10:01:01 17,2 C 43,0%
26.01.2020 09:54:00 17,1 C 43,0%
26.01.2020 09:46:58 17,0 C 43,0%
26.01.2020 09:39:56 16,8 C 43,0%
26.01.2020 09:32:54 16,7 C 43,0%
26.01.2020 09:25:53 16,8 C 43,0%
26.01.2020 09:18:52 16,9 C 43,0%
26.01.2020 09:11:49 17,0 C 43,0%
26.01.2020 09:04:49 17,0 C 43,0%
26.01.2020 08:57:45 17,1 C 43,0%
26.01.2020 08:50:42 17,1 C 43,0%
26.01.2020 08:43:40 17,2 C 43,0%
26.01.2020 08:36:38 17,3 C 43,0%
26.01.2020 08:29:35 17,3 C 43,0%
26.01.2020 08:22:33 17,4 C 43,0%
26.01.2020 08:15:31 17,5 C 43,0%
26.01.2020 08:08:29 17,6 C 43,0%
26.01.2020 08:01:27 17,7 C 43,0%
26.01.2020 07:54:24 17,8 C 43,0%
26.01.2020 07:47:23 17,8 C 43,0%
26.01.2020 07:40:21 17,9 C 43,0%
26.01.2020 07:33:19 17,9 C 43,0%
26.01.2020 07:26:18 17,8 C 43,0%
26.01.2020 07:19:16 17,6 C 43,0%
26.01.2020 07:12:14 17,5 C 42,0%
26.01.2020 07:05:11 17,4 C 43,0%
26.01.2020 06:58:09 17,3 C 43,0%
26.01.2020 06:51:08 17,1 C 43,0%
26.01.2020 06:44:05 17,0 C 43,0%
26.01.2020 06:37:02 16,8 C 43,0%
26.01.2020 06:30:01 16,7 C 43,0%
26.01.2020 06:22:58 16,6 C 43,0%
26.01.2020 06:15:55 16,5 C 43,0%
26.01.2020 06:08:54 16,6 C 43,0%
26.01.2020 06:01:53 16,7 C 43,0%
26.01.2020 05:54:51 16,7 C 43,0%
26.01.2020 05:47:48 16,9 C 43,0%
26.01.2020 05:40:46 17,0 C 43,0%
26.01.2020 05:33:44 17,0 C 43,0%
26.01.2020 05:26:41 17,1 C 43,0%
26.01.2020 05:19:40 17,3 C 43,0%
26.01.2020 05:12:38 17,3 C 42,0%
26.01.2020 05:05:34 17,5 C 42,0%
26.01.2020 04:58:34 17,5 C 42,0%
26.01.2020 04:51:33 17,6 C 42,0%
26.01.2020 04:44:30 17,7 C 42,0%
26.01.2020 04:37:29 17,7 C 42,0%
26.01.2020 04:30:26 17,6 C 42,0%
26.01.2020 04:23:23 17,5 C 43,0%
26.01.2020 04:16:21 17,4 C 43,0%
26.01.2020 04:09:19 17,3 C 43,0%
26.01.2020 04:02:17 17,2 C 43,0%
26.01.2020 03:55:15 17,0 C 43,0%
26.01.2020 03:48:12 16,9 C 43,0%
26.01.2020 03:41:10 16,7 C 43,0%
26.01.2020 03:34:08 16,6 C 43,0%
26.01.2020 03:27:08 16,5 C 43,0%
26.01.2020 03:20:06 16,5 C 43,0%
26.01.2020 03:13:06 16,6 C 43,0%
26.01.2020 03:06:05 16,7 C 43,0%
26.01.2020 02:59:02 16,8 C 43,0%
26.01.2020 02:52:01 16,9 C 43,0%
26.01.2020 02:45:01 17,0 C 43,0%
26.01.2020 02:37:59 17,1 C 43,0%
26.01.2020 02:30:57 17,2 C 43,0%
26.01.2020 02:23:55 17,3 C 43,0%
26.01.2020 02:16:52 17,4 C 43,0%
26.01.2020 02:09:49 17,5 C 43,0%
26.01.2020 02:02:48 17,6 C 43,0%
26.01.2020 01:55:46 17,7 C 43,0%
26.01.2020 01:48:44 17,7 C 43,0%
26.01.2020 01:41:42 17,6 C 43,0%
26.01.2020 01:34:41 17,5 C 43,0%
26.01.2020 01:27:40 17,3 C 43,0%
26.01.2020 01:20:37 17,2 C 43,0%
26.01.2020 01:13:34 17,1 C 43,0%
26.01.2020 01:06:32 16,9 C 43,0%
26.01.2020 00:59:30 16,8 C 43,0%
26.01.2020 00:52:29 16,7 C 43,0%
26.01.2020 00:45:25 16,6 C 43,0%
26.01.2020 00:38:21 16,5 C 43,0%
26.01.2020 00:31:21 16,6 C 43,0%
26.01.2020 00:24:20 16,7 C 43,0%
26.01.2020 00:17:17 16,8 C 43,0%
26.01.2020 00:10:14 16,9 C 43,0%
26.01.2020 00:03:13 17,0 C 43,0%